owner,sensor,date,latitude,longitude,vertical_datum,wind_speed,wind_to_direction,wind_speed_of_gust,qcFlag 
TABS,ioos:station:wmo:42044:1,2002-12-01T00:09:00Z,26.1914,-97.0507,0.0,1.17,292.6198121,2.52,'11111222,11111222,11111222' 
TABS,ioos:station:wmo:42044:1,2002-12-01T01:09:00Z,26.1914,-97.0507,0.0,1.0754069,292.988663,2.4,'11111222,11111222,11111222' 
TABS,ioos:station:wmo:42044:1,2002-12-01T01:39:00Z,26.1914,-97.0507,0.0,1.853483207,287.26178,3.05,'11111222,11111222,11111222' 
TABS,ioos:station:wmo:42044:1,2002-12-01T02:09:00Z,26.1914,-97.0507,0.0,2.39415956,300.6353459,3.97,'11111222,11111222,11111222' 
TABS,ioos:station:wmo:42044:1,2002-12-01T02:39:00Z,26.1914,-97.0507,0.0,2.956010825,307.0248737,4.24,'11111222,11111222,11111222' 
TABS,ioos:station:wmo:42044:1,2002-12-01T03:09:00Z,26.1914,-97.0507,0.0,2.876004172,297.5450678,3.96,'11111222,11111222,11111222' 
TABS,ioos:station:wmo:42044:1,2002-12-01T04:09:00Z,26.1914,-97.0507,0.0,6.320039557,334.4078814,9.04,'11111222,11111222,11111222' 
TABS,ioos:station:wmo:42044:1,2002-12-01T04:39:00Z,26.1914,-97.0507,0.0,7.703973001,342.3174927,10.9,'11111222,11111222,11111222' 
TABS,ioos:station:wmo:42044:1,2002-12-01T05:09:00Z,26.1914,-97.0507,0.0,6.719650289,334.9984079,10.53,'11111222,11111222,11111222' 
TABS,ioos:station:wmo:42044:1,2002-12-01T05:39:00Z,26.1914,-97.0507,0.0,6.504713675,330.8340331,9.25,'11111222,11111222,11111222' 
TABS,ioos:station:wmo:42044:1,2002-12-01T06:09:00Z,26.1914,-97.0507,0.0,5.633977281,343.0765461,8.37,'11111222,11111222,11111222' 
TABS,ioos:station:wmo:42044:1,2002-12-01T07:09:00Z,26.1914,-97.0507,0.0,8.149895705,345.2133217,10.59,'11111222,11111222,11111222' 
TABS,ioos:station:wmo:42044:1,2002-12-01T07:39:00Z,26.1914,-97.0507,0.0,6.543638132,349.7889457,8.47,'11111222,11111222,11111222' 
TABS,ioos:station:wmo:42044:1,2002-12-01T08:09:00Z,26.1914,-97.0507,0.0,6.733297855,349.4742491,9.05,'11111222,11111222,11111222' 
TABS,ioos:station:wmo:42044:1,2002-12-01T08:39:00Z,26.1914,-97.0507,0.0,6.554540411,349.2727635,8.78,'11111222,11111222,11111222' 
TABS,ioos:station:wmo:42044:1,2002-12-01T09:09:00Z,26.1914,-97.0507,0.0,5.342705307,321.3065753,7.2,'11111222,11111222,11111222' 
TABS,ioos:station:wmo:42044:1,2002-12-01T10:09:00Z,26.1914,-97.0507,0.0,6.044121111,331.8660299,7.78,'11111222,11111222,11111222' 
TABS,ioos:station:wmo:42044:1,2002-12-01T10:39:00Z,26.1914,-97.0507,0.0,8.873657645,301.4509179,11.67,'11111222,11111222,11111222' 
TABS,ioos:station:wmo:42044:1,2002-12-01T11:09:00Z,26.1914,-97.0507,0.0,8.91319247,309.1717207,11.74,'11111222,11111222,11111222' 
TABS,ioos:station:wmo:42044:1,2002-12-01T11:39:00Z,26.1914,-97.0507,0.0,7.220470899,295.0743607,10.05,'11111222,11111222,11111222' 
TABS,ioos:station:wmo:42044:1,2002-12-01T12:09:00Z,26.1914,-97.0507,0.0,4.362396131,298.327376,7.11,'11111222,11111222,11111222' 
TABS,ioos:station:wmo:42044:1,2002-12-01T13:09:00Z,26.1914,-97.0507,0.0,3.242113508,355.0453699,5.31,'11111222,11111222,11111222' 
TABS,ioos:station:wmo:42044:1,2002-12-01T13:39:00Z,26.1914,-97.0507,0.0,3.868397601,350.9270841,6.6,'11111222,11111222,11111222' 
TABS,ioos:station:wmo:42044:1,2002-12-01T14:09:00Z,26.1914,-97.0507,0.0,2.300543414,358.7544282,5.22,'11111222,11111222,11111222' 
TABS,ioos:station:wmo:42044:1,2002-12-01T14:39:00Z,26.1914,-97.0507,0.0,4.349390762,21.01833568,7.26,'11111222,11111222,11111222' 
TABS,ioos:station:wmo:42044:1,2002-12-01T15:09:00Z,26.1914,-97.0507,0.0,4.212172836,18.26263678,6.78,'11111222,11111222,11111222' 
TABS,ioos:station:wmo:42044:1,2002-12-01T16:09:00Z,26.1914,-97.0507,0.0,1.838477631,14.48951825,4.78,'11111222,11111222,11111222' 
TABS,ioos:station:wmo:42044:1,2002-12-01T16:39:00Z,26.1914,-97.0507,0.0,1.056030303,24.62329675,3.2,'11111222,11111222,11111222' 
TABS,ioos:station:wmo:42044:1,2002-12-01T17:09:00Z,26.1914,-97.0507,0.0,1.230447073,45.65822595,3.58,'11111222,11111222,11111222' 
TABS,ioos:station:wmo:42044:1,2002-12-01T17:39:00Z,26.1914,-97.0507,0.0,1.711724277,43.57942209,3.8,'11111222,11111222,11111222' 
TABS,ioos:station:wmo:42044:1,2002-12-01T18:09:00Z,26.1914,-97.0507,0.0,2.188355547,33.25407835,4.59,'11111222,11111222,11111222' 
TABS,ioos:station:wmo:42044:1,2002-12-01T19:09:00Z,26.1914,-97.0507,0.0,2.323122898,22.25913706,5.64,'11111222,11111222,11111222' 
TABS,ioos:station:wmo:42044:1,2002-12-01T19:39:00Z,26.1914,-97.0507,0.0,1.998049048,37.27106539,4.82,'11111222,11111222,11111222' 
TABS,ioos:station:wmo:42044:1,2002-12-01T20:09:00Z,26.1914,-97.0507,0.0,2.813147703,64.0721941,5.01,'11111222,11111222,11111222' 
TABS,ioos:station:wmo:42044:1,2002-12-01T20:39:00Z,26.1914,-97.0507,0.0,3.386871713,71.93914938,5.78,'11111222,11111222,11111222' 
TABS,ioos:station:wmo:42044:1,2002-12-01T21:09:00Z,26.1914,-97.0507,0.0,3.791952004,77.35607842,6.08,'11111222,11111222,11111222' 
TABS,ioos:station:wmo:42044:1,2002-12-01T22:09:00Z,26.1914,-97.0507,0.0,3.474276903,83.22231735,6.01,'11111222,11111222,11111222' 
TABS,ioos:station:wmo:42044:1,2002-12-01T22:39:00Z,26.1914,-97.0507,0.0,2.973247383,78.16057264,5.51,'11111222,11111222,11111222' 
TABS,ioos:station:wmo:42044:1,2002-12-01T23:09:00Z,26.1914,-97.0507,0.0,2.730018315,83.05680028,4.85,'11111222,11111222,11111222' 
TABS,ioos:station:wmo:42044:1,2002-12-01T23:39:00Z,26.1914,-97.0507,0.0,2.414228655,100.9845226,4.47,'11111222,11111222,11111222' 
TABS,ioos:station:wmo:42044:1,2002-12-02T00:09:00Z,26.1914,-97.0507,0.0,2.693640659,92.97966247,5.11,'11111222,11111222,11111222' 
TABS,ioos:station:wmo:42044:1,2002-12-02T01:09:00Z,26.1914,-97.0507,0.0,2.953116997,131.843323,6.75,'11111222,11111222,11111222' 
TABS,ioos:station:wmo:42044:1,2002-12-02T01:39:00Z,26.1914,-97.0507,0.0,2.039068415,144.9852525,3.93,'11111222,11111222,11111222' 
TABS,ioos:station:wmo:42044:1,2002-12-02T02:09:00Z,26.1914,-97.0507,0.0,2.049487741,151.4344405,3.99,'11111222,11111222,11111222' 
TABS,ioos:station:wmo:42044:1,2002-12-02T02:39:00Z,26.1914,-97.0507,0.0,1.968247952,152.1332718,4.01,'11111222,11111222,11111222' 
TABS,ioos:station:wmo:42044:1,2002-12-02T03:09:00Z,26.1914,-97.0507,0.0,2.19456146,140.3618721,4.67,'11111222,11111222,11111222' 
TABS,ioos:station:wmo:42044:1,2002-12-02T04:09:00Z,26.1914,-97.0507,0.0,2.358495283,164.2550688,4.37,'11111222,11111222,11111222' 
TABS,ioos:station:wmo:42044:1,2002-12-02T04:39:00Z,26.1914,-97.0507,0.0,1.986680649,168.9731039,4.1,'11111222,11111222,11111222' 
TABS,ioos:station:wmo:42044:1,2002-12-02T05:09:00Z,26.1914,-97.0507,0.0,2.336343297,192.6087878,3.97,'11111222,11111222,11111222' 
TABS,ioos:station:wmo:42044:1,2002-12-02T05:39:00Z,26.1914,-97.0507,0.0,3.145822627,169.1903784,4.92,'11111222,11111222,11111222' 
TABS,ioos:station:wmo:42044:1,2002-12-02T06:09:00Z,26.1914,-97.0507,0.0,3.406890077,169.5148826,5.1,'11111222,11111222,11111222' 
TABS,ioos:station:wmo:42044:1,2002-12-02T07:09:00Z,26.1914,-97.0507,0.0,2.951491149,171.6230463,4.83,'11111222,11111222,11111222' 
TABS,ioos:station:wmo:42044:1,2002-12-02T07:39:00Z,26.1914,-97.0507,0.0,3.514896869,170.8326936,4.75,'11111222,11111222,11111222' 
TABS,ioos:station:wmo:42044:1,2002-12-02T08:09:00Z,26.1914,-97.0507,0.0,3.300742341,178.7850305,4.81,'11111222,11111222,11111222' 
TABS,ioos:station:wmo:42044:1,2002-12-02T08:39:00Z,26.1914,-97.0507,0.0,3.314528624,174.6336412,5.02,'11111222,11111222,11111222' 
TABS,ioos:station:wmo:42044:1,2002-12-02T09:09:00Z,26.1914,-97.0507,0.0,3.330960822,175.3508568,4.96,'11111222,11111222,11111222' 
TABS,ioos:station:wmo:42044:1,2002-12-02T10:09:00Z,26.1914,-97.0507,0.0,2.908779813,210.3558268,4.9,'11111222,11111222,11111222' 
TABS,ioos:station:wmo:42044:1,2002-12-02T10:39:00Z,26.1914,-97.0507,0.0,2.402519511,182.6244243,3.67,'11111222,11111222,11111222' 
TABS,ioos:station:wmo:42044:1,2002-12-02T11:09:00Z,26.1914,-97.0507,0.0,2.443685741,190.8502897,4.26,'11111222,11111222,11111222' 
TABS,ioos:station:wmo:42044:1,2002-12-02T11:39:00Z,26.1914,-97.0507,0.0,2.602306669,224.377351,4.46,'11111222,11111222,11111222' 
TABS,ioos:station:wmo:42044:1,2002-12-02T12:09:00Z,26.1914,-97.0507,0.0,1.180677771,231.1887067,3.03,'11111222,11111222,11111222' 
TABS,ioos:station:wmo:42044:1,2002-12-02T13:09:00Z,26.1914,-97.0507,0.0,4.053603335,234.7417337,5.84,'11111222,11111222,11111222' 
TABS,ioos:station:wmo:42044:1,2002-12-02T13:39:00Z,26.1914,-97.0507,0.0,3.937067437,245.0622905,5.58,'11111222,11111222,11111222' 
TABS,ioos:station:wmo:42044:1,2002-12-02T14:09:00Z,26.1914,-97.0507,0.0,3.85945592,234.704012,5.89,'11111222,11111222,11111222' 
TABS,ioos:station:wmo:42044:1,2002-12-02T14:39:00Z,26.1914,-97.0507,0.0,3.365857989,224.7593686,5.04,'11111222,11111222,11111222' 
TABS,ioos:station:wmo:42044:1,2002-12-02T15:09:00Z,26.1914,-97.0507,0.0,4.484149864,223.7351073,6.01,'11111222,11111222,11111222' 
TABS,ioos:station:wmo:42044:1,2002-12-02T16:09:00Z,26.1914,-97.0507,0.0,3.890051414,217.1645984,5.7,'11111222,11111222,11111222' 
TABS,ioos:station:wmo:42044:1,2002-12-02T16:39:00Z,26.1914,-97.0507,0.0,4.222001895,216.815739,6.4,'11111222,11111222,11111222' 
TABS,ioos:station:wmo:42044:1,2002-12-02T17:09:00Z,26.1914,-97.0507,0.0,3.211261434,209.678631,4.55,'11111222,11111222,11111222' 
TABS,ioos:station:wmo:42044:1,2002-12-02T17:39:00Z,26.1914,-97.0507,0.0,3.37241753,205.6534095,4.96,'11111222,11111222,11111222' 
TABS,ioos:station:wmo:42044:1,2002-12-02T18:09:00Z,26.1914,-97.0507,0.0,4.133581982,195.1458812,5.77,'11111222,11111222,11111222' 
TABS,ioos:station:wmo:42044:1,2002-12-02T19:09:00Z,26.1914,-97.0507,0.0,3.617844662,199.0360974,5.2,'11111222,11111222,11111222' 
TABS,ioos:station:wmo:42044:1,2002-12-02T19:39:00Z,26.1914,-97.0507,0.0,3.206618156,194.8164952,4.55,'11111222,11111222,11111222' 
TABS,ioos:station:wmo:42044:1,2002-12-02T20:09:00Z,26.1914,-97.0507,0.0,2.933428029,203.5065091,4.26,'11111222,11111222,11111222' 
TABS,ioos:station:wmo:42044:1,2002-12-02T20:39:00Z,26.1914,-97.0507,0.0,2.737480594,210.0305894,4.09,'11111222,11111222,11111222' 
TABS,ioos:station:wmo:42044:1,2002-12-02T21:09:00Z,26.1914,-97.0507,0.0,3.199077992,194.2970515,4.41,'11111222,11111222,11111222' 
TABS,ioos:station:wmo:42044:1,2002-12-02T22:09:00Z,26.1914,-97.0507,0.0,4.219004622,185.4405298,5.47,'11111222,11111222,11111222' 
TABS,ioos:station:wmo:42044:1,2002-12-02T22:39:00Z,26.1914,-97.0507,0.0,3.44,180.0002105,4.49,'11111222,11111222,11111222' 
TABS,ioos:station:wmo:42044:1,2002-12-02T23:09:00Z,26.1914,-97.0507,0.0,3.163099746,177.4634547,4.16,'11111222,11111222,11111222' 
TABS,ioos:station:wmo:42044:1,2002-12-02T23:39:00Z,26.1914,-97.0507,0.0,3.003614489,170.2243084,4.01,'11111222,11111222,11111222' 
TABS,ioos:station:wmo:42044:1,2002-12-03T00:09:00Z,26.1914,-97.0507,0.0,2.963190848,162.1156195,4.54,'11111222,11111222,11111222' 
TABS,ioos:station:wmo:42044:1,2002-12-03T01:09:00Z,26.1914,-97.0507,0.0,3.350477578,163.3501439,4.84,'11111222,11111222,11111222' 
TABS,ioos:station:wmo:42044:1,2002-12-03T01:39:00Z,26.1914,-97.0507,0.0,3.723022965,182.3092678,5.31,'11111222,11111222,11111222' 
TABS,ioos:station:wmo:42044:1,2002-12-03T02:09:00Z,26.1914,-97.0507,0.0,3.679836953,171.5618522,5.12,'11111222,11111222,11111222' 
TABS,ioos:station:wmo:42044:1,2002-12-03T02:39:00Z,26.1914,-97.0507,0.0,4.569562342,172.4552991,6.46,'11111222,11111222,11111222' 
TABS,ioos:station:wmo:42044:1,2002-12-03T03:09:00Z,26.1914,-97.0507,0.0,4.230425511,168.1325063,5.5,'11111222,11111222,11111222' 
TABS,ioos:station:wmo:42044:1,2002-12-03T04:09:00Z,26.1914,-97.0507,0.0,3.278322742,172.4633309,4.58,'11111222,11111222,11111222' 
TABS,ioos:station:wmo:42044:1,2002-12-03T04:39:00Z,26.1914,-97.0507,0.0,3.657786216,172.9334973,5.29,'11111222,11111222,11111222' 
TABS,ioos:station:wmo:42044:1,2002-12-03T05:09:00Z,26.1914,-97.0507,0.0,4.066693989,161.6544114,5.59,'11111222,11111222,11111222' 
TABS,ioos:station:wmo:42044:1,2002-12-03T05:39:00Z,26.1914,-97.0507,0.0,4.631306511,155.3720173,6.77,'11111222,11111222,11111222' 
TABS,ioos:station:wmo:42044:1,2002-12-03T06:09:00Z,26.1914,-97.0507,0.0,5.296234511,157.6966239,6.9,'11111222,11111222,11111222' 
TABS,ioos:station:wmo:42044:1,2002-12-03T07:09:00Z,26.1914,-97.0507,0.0,4.871231877,167.1907609,6.46,'11111222,11111222,11111222' 
TABS,ioos:station:wmo:42044:1,2002-12-03T07:39:00Z,26.1914,-97.0507,0.0,5.444281403,173.5670589,6.97,'11111222,11111222,11111222' 
TABS,ioos:station:wmo:42044:1,2002-12-03T08:09:00Z,26.1914,-97.0507,0.0,4.495386524,177.1950948,5.65,'11111222,11111222,11111222' 
TABS,ioos:station:wmo:42044:1,2002-12-03T08:39:00Z,26.1914,-97.0507,0.0,5.41939111,172.2588703,6.51,'11111222,11111222,11111222' 
TABS,ioos:station:wmo:42044:1,2002-12-03T09:09:00Z,26.1914,-97.0507,0.0,5.346335193,174.3109579,6.77,'11111222,11111222,11111222' 
TABS,ioos:station:wmo:42044:1,2002-12-03T10:09:00Z,26.1914,-97.0507,0.0,5.783424591,155.9170706,6.97,'11111222,11111222,11111222' 
TABS,ioos:station:wmo:42044:1,2002-12-03T10:39:00Z,26.1914,-97.0507,0.0,4.040643513,165.9639998,6.0,'11111222,11111222,11111222' 
TABS,ioos:station:wmo:42044:1,2002-12-03T11:09:00Z,26.1914,-97.0507,0.0,5.90978849,163.2824329,7.47,'11111222,11111222,11111222' 
TABS,ioos:station:wmo:42044:1,2002-12-03T11:39:00Z,26.1914,-97.0507,0.0,5.668244878,166.4298078,6.94,'11111222,11111222,11111222' 
TABS,ioos:station:wmo:42044:1,2002-12-03T12:09:00Z,26.1914,-97.0507,0.0,5.412254613,169.9983865,6.73,'11111222,11111222,11111222' 
TABS,ioos:station:wmo:42044:1,2002-12-03T13:09:00Z,26.1914,-97.0507,0.0,6.325693638,165.3488861,7.84,'11111222,11111222,11111222' 
TABS,ioos:station:wmo:42044:1,2002-12-03T13:39:00Z,26.1914,-97.0507,0.0,5.274864927,161.0844173,6.67,'11111222,11111222,11111222' 
TABS,ioos:station:wmo:42044:1,2002-12-03T14:09:00Z,26.1914,-97.0507,0.0,4.601260697,167.9576635,6.44,'11111222,11111222,11111222' 
TABS,ioos:station:wmo:42044:1,2002-12-03T14:39:00Z,26.1914,-97.0507,0.0,5.246227216,161.6689134,6.92,'11111222,11111222,11111222' 
TABS,ioos:station:wmo:42044:1,2002-12-03T15:09:00Z,26.1914,-97.0507,0.0,5.846383498,159.8915576,7.62,'11111222,11111222,11111222' 
TABS,ioos:station:wmo:42044:1,2002-12-03T16:09:00Z,26.1914,-97.0507,0.0,6.211360559,166.120606,8.19,'11111222,11111222,11111222' 
TABS,ioos:station:wmo:42044:1,2002-12-03T16:39:00Z,26.1914,-97.0507,0.0,6.013917193,171.0077931,7.53,'11111222,11111222,11111222' 
TABS,ioos:station:wmo:42044:1,2002-12-03T17:09:00Z,26.1914,-97.0507,0.0,6.173435024,170.0191358,7.48,'11111222,11111222,11111222' 
TABS,ioos:station:wmo:42044:1,2002-12-03T17:39:00Z,26.1914,-97.0507,0.0,6.544990451,167.91771,8.5,'11111222,11111222,11111222' 
TABS,ioos:station:wmo:42044:1,2002-12-03T18:09:00Z,26.1914,-97.0507,0.0,7.626401511,159.4266272,9.46,'11111222,11111222,11111222' 
TABS,ioos:station:wmo:42044:1,2002-12-03T18:39:00Z,26.1914,-97.0507,0.0,7.137597635,172.1085265,9.17,'11111222,11111222,11111222' 
TABS,ioos:station:wmo:42044:1,2002-12-03T19:09:00Z,26.1914,-97.0507,0.0,6.295395142,175.9924153,7.81,'11111222,11111222,11111222' 
TABS,ioos:station:wmo:42044:1,2002-12-03T19:39:00Z,26.1914,-97.0507,0.0,4.795258074,195.9783938,6.96,'11111222,11111222,11111222' 
TABS,ioos:station:wmo:42044:1,2002-12-03T20:09:00Z,26.1914,-97.0507,0.0,5.396906521,187.5597585,6.69,'11111222,11111222,11111222' 
TABS,ioos:station:wmo:42044:1,2002-12-03T20:39:00Z,26.1914,-97.0507,0.0,5.964109322,176.0583383,7.97,'11111222,11111222,11111222' 
TABS,ioos:station:wmo:42044:1,2002-12-03T21:09:00Z,26.1914,-97.0507,0.0,7.831634568,155.5623675,10.38,'11111222,11111222,11111222' 
TABS,ioos:station:wmo:42044:1,2002-12-03T21:39:00Z,26.1914,-97.0507,0.0,5.083512565,125.4725049,8.42,'11111222,11111222,11111222' 
TABS,ioos:station:wmo:42044:1,2002-12-03T22:09:00Z,26.1914,-97.0507,0.0,6.601946683,137.1486626,9.53,'11111222,11111222,11111222' 
TABS,ioos:station:wmo:42044:1,2002-12-03T22:39:00Z,26.1914,-97.0507,0.0,7.191001321,142.1742322,9.47,'11111222,11111222,11111222' 
TABS,ioos:station:wmo:42044:1,2002-12-03T23:09:00Z,26.1914,-97.0507,0.0,5.663929731,134.9287856,9.0,'11111222,11111222,11111222' 
TABS,ioos:station:wmo:42044:1,2002-12-03T23:39:00Z,26.1914,-97.0507,0.0,6.153324305,139.0859229,9.01,'11111222,11111222,11111222' 
TABS,ioos:station:wmo:42044:1,2002-12-04T00:09:00Z,26.1914,-97.0507,0.0,5.486209985,127.3715303,9.15,'11111222,11111222,11111222' 
TABS,ioos:station:wmo:42044:1,2002-12-04T00:39:00Z,26.1914,-97.0507,0.0,6.378667572,135.7625188,9.33,'11111222,11111222,11111222' 
TABS,ioos:station:wmo:42044:1,2002-12-04T01:09:00Z,26.1914,-97.0507,0.0,7.027552917,132.6359774,9.82,'11111222,11111222,11111222' 
TABS,ioos:station:wmo:42044:1,2002-12-04T01:39:00Z,26.1914,-97.0507,0.0,5.836060315,165.1067723,10.15,'11111222,11111222,11111222' 
TABS,ioos:station:wmo:42044:1,2002-12-04T02:09:00Z,26.1914,-97.0507,0.0,7.804870274,156.9173449,9.93,'11111222,11111222,11111222' 
TABS,ioos:station:wmo:42044:1,2002-12-04T02:39:00Z,26.1914,-97.0507,0.0,9.142674663,149.2837204,12.07,'11111222,11111222,11111222' 
TABS,ioos:station:wmo:42044:1,2002-12-04T03:09:00Z,26.1914,-97.0507,0.0,8.873792876,160.9935924,11.97,'11111222,11111222,11111222' 
TABS,ioos:station:wmo:42044:1,2002-12-04T03:39:00Z,26.1914,-97.0507,0.0,7.950874166,162.4312828,10.01,'11111222,11111222,11111222' 
TABS,ioos:station:wmo:42044:1,2002-12-04T04:09:00Z,26.1914,-97.0507,0.0,8.139686726,156.773946,10.94,'11111222,11111222,11111222' 
TABS,ioos:station:wmo:42044:1,2002-12-04T04:39:00Z,26.1914,-97.0507,0.0,8.121360723,155.3286028,10.29,'11111222,11111222,11111222' 
TABS,ioos:station:wmo:42044:1,2002-12-04T05:09:00Z,26.1914,-97.0507,0.0,8.29205041,148.7639741,10.63,'11111222,11111222,11111222' 
TABS,ioos:station:wmo:42044:1,2002-12-04T05:39:00Z,26.1914,-97.0507,0.0,6.463342788,140.3990346,10.03,'11111222,11111222,11111222' 
TABS,ioos:station:wmo:42044:1,2002-12-04T06:09:00Z,26.1914,-97.0507,0.0,9.080886521,149.1988365,11.92,'11111222,11111222,11111222' 
TABS,ioos:station:wmo:42044:1,2002-12-04T06:39:00Z,26.1914,-97.0507,0.0,9.658100227,142.8693728,12.77,'11111222,11111222,11111222' 
TABS,ioos:station:wmo:42044:1,2002-12-04T07:09:00Z,26.1914,-97.0507,0.0,9.646025088,143.2610752,13.37,'11111222,11111222,11111222' 
TABS,ioos:station:wmo:42044:1,2002-12-04T07:39:00Z,26.1914,-97.0507,0.0,8.980734937,146.6287242,12.61,'11111222,11111222,11111222' 
TABS,ioos:station:wmo:42044:1,2002-12-04T08:09:00Z,26.1914,-97.0507,0.0,8.712152432,148.9011825,12.11,'11111222,11111222,11111222' 
TABS,ioos:station:wmo:42044:1,2002-12-04T08:39:00Z,26.1914,-97.0507,0.0,3.397675676,137.6245296,7.31,'11111222,11111222,11111222' 
TABS,ioos:station:wmo:42044:1,2002-12-04T09:09:00Z,26.1914,-97.0507,0.0,2.794065139,130.6461048,6.68,'11111222,11111222,11111222' 
TABS,ioos:station:wmo:42044:1,2002-12-04T09:39:00Z,26.1914,-97.0507,0.0,1.475025424,81.81456225,5.11,'11111222,11111222,11111222' 
TABS,ioos:station:wmo:42044:1,2002-12-04T10:09:00Z,26.1914,-97.0507,0.0,1.54728795,354.4365937,6.42,'11111222,11111222,11111222' 
TABS,ioos:station:wmo:42044:1,2002-12-04T10:39:00Z,26.1914,-97.0507,0.0,3.02729252,86.02184774,5.31,'11111222,11111222,11111222' 
TABS,ioos:station:wmo:42044:1,2002-12-04T11:09:00Z,26.1914,-97.0507,0.0,2.492388413,144.1419345,6.28,'11111222,11111222,11111222' 
TABS,ioos:station:wmo:42044:1,2002-12-04T11:39:00Z,26.1914,-97.0507,0.0,3.531416147,204.2426946,6.65,'11111222,11111222,11111222' 
TABS,ioos:station:wmo:42044:1,2002-12-04T12:09:00Z,26.1914,-97.0507,0.0,2.773463539,149.9222883,6.93,'11111222,11111222,11111222' 
TABS,ioos:station:wmo:42044:1,2002-12-04T12:39:00Z,26.1914,-97.0507,0.0,1.619289968,202.1300954,6.04,'11111222,11111222,11111222' 
TABS,ioos:station:wmo:42044:1,2002-12-04T13:09:00Z,26.1914,-97.0507,0.0,3.749453293,208.3422986,6.63,'11111222,11111222,11111222' 
TABS,ioos:station:wmo:42044:1,2002-12-04T13:39:00Z,26.1914,-97.0507,0.0,5.223839584,221.0415881,7.93,'11111222,11111222,11111222' 
TABS,ioos:station:wmo:42044:1,2002-12-04T14:09:00Z,26.1914,-97.0507,0.0,6.665530737,196.8311485,9.81,'11111222,11111222,11111222' 
TABS,ioos:station:wmo:42044:1,2002-12-04T14:39:00Z,26.1914,-97.0507,0.0,6.131076578,210.9158143,10.71,'11111222,11111222,11111222' 
TABS,ioos:station:wmo:42044:1,2002-12-04T15:09:00Z,26.1914,-97.0507,0.0,8.725508581,236.5467688,12.25,'11111222,11111222,11111222' 
TABS,ioos:station:wmo:42044:1,2002-12-04T15:39:00Z,26.1914,-97.0507,0.0,5.085233525,218.132035,8.38,'11111222,11111222,11111222' 
TABS,ioos:station:wmo:42044:1,2002-12-04T16:09:00Z,26.1914,-97.0507,0.0,3.89011568,197.5035618,6.79,'11111222,11111222,11111222' 
TABS,ioos:station:wmo:42044:1,2002-12-04T16:39:00Z,26.1914,-97.0507,0.0,3.320963716,189.0086931,6.07,'11111222,11111222,11111222' 
TABS,ioos:station:wmo:42044:1,2002-12-04T17:09:00Z,26.1914,-97.0507,0.0,4.33424734,207.6293925,6.82,'11111222,11111222,11111222' 
TABS,ioos:station:wmo:42044:1,2002-12-04T17:39:00Z,26.1914,-97.0507,0.0,3.916490776,215.9629654,6.32,'11111222,11111222,11111222' 
TABS,ioos:station:wmo:42044:1,2002-12-04T18:09:00Z,26.1914,-97.0507,0.0,11.62587631,299.9832111,21.45,'11111222,11111222,11111222' 
TABS,ioos:station:wmo:42044:1,2002-12-04T18:39:00Z,26.1914,-97.0507,0.0,14.68422623,331.707028,22.6,'11111222,11111222,11111222' 
TABS,ioos:station:wmo:42044:1,2002-12-04T19:09:00Z,26.1914,-97.0507,0.0,14.58174544,337.0747018,20.98,'11111222,11111222,11111222' 
TABS,ioos:station:wmo:42044:1,2002-12-04T19:39:00Z,26.1914,-97.0507,0.0,14.34523266,336.8484533,20.72,'11111222,11111222,11111222' 
TABS,ioos:station:wmo:42044:1,2002-12-04T20:09:00Z,26.1914,-97.0507,0.0,13.29699214,336.1336076,19.42,'11111222,11111222,11111222' 
TABS,ioos:station:wmo:42044:1,2002-12-04T20:39:00Z,26.1914,-97.0507,0.0,12.50105996,338.3601385,18.04,'11111222,11111222,11111222' 
TABS,ioos:station:wmo:42044:1,2002-12-04T21:09:00Z,26.1914,-97.0507,0.0,12.64598355,337.9376157,58.74,'11111222,11111222,11111222' 
TABS,ioos:station:wmo:42044:1,2002-12-04T21:39:00Z,26.1914,-97.0507,0.0,12.14948559,341.4754061,16.24,'11111222,11111222,11111222' 
TABS,ioos:station:wmo:42044:1,2002-12-04T22:09:00Z,26.1914,-97.0507,0.0,11.27713616,332.1395623,21.2,'11111222,11111222,11111222' 
TABS,ioos:station:wmo:42044:1,2002-12-04T22:39:00Z,26.1914,-97.0507,0.0,11.3280934,333.7514728,16.11,'11111222,11111222,11111222' 
TABS,ioos:station:wmo:42044:1,2002-12-04T23:09:00Z,26.1914,-97.0507,0.0,10.98921744,334.2742371,17.32,'11111222,11111222,11111222' 
TABS,ioos:station:wmo:42044:1,2002-12-04T23:39:00Z,26.1914,-97.0507,0.0,10.77842753,332.8404686,17.15,'11111222,11111222,11111222' 
TABS,ioos:station:wmo:42044:1,2002-12-05T00:09:00Z,26.1914,-97.0507,0.0,10.50280439,340.8230666,16.05,'11111222,11111222,11111222' 
TABS,ioos:station:wmo:42044:1,2002-12-05T00:39:00Z,26.1914,-97.0507,0.0,10.43506109,336.5056574,46.07,'11111222,11111222,11111222' 
TABS,ioos:station:wmo:42044:1,2002-12-05T01:09:00Z,26.1914,-97.0507,0.0,10.79396591,334.7167932,44.22,'11111222,11111222,11111222' 
TABS,ioos:station:wmo:42044:1,2002-12-05T01:39:00Z,26.1914,-97.0507,0.0,10.53822091,338.2792002,15.0,'11111222,11111222,11111222' 
TABS,ioos:station:wmo:42044:1,2002-12-05T02:09:00Z,26.1914,-97.0507,0.0,9.823059605,336.6710535,15.29,'11111222,11111222,11111222' 
TABS,ioos:station:wmo:42044:1,2002-12-05T02:39:00Z,26.1914,-97.0507,0.0,10.2535311,331.9602382,14.94,'11111222,11111222,11111222' 
TABS,ioos:station:wmo:42044:1,2002-12-05T03:09:00Z,26.1914,-97.0507,0.0,10.59003305,333.5315836,14.83,'11111222,11111222,11111222' 
TABS,ioos:station:wmo:42044:1,2002-12-05T03:39:00Z,26.1914,-97.0507,0.0,10.22904199,334.3366251,16.88,'11111222,11111222,11111222' 
TABS,ioos:station:wmo:42044:1,2002-12-05T04:09:00Z,26.1914,-97.0507,0.0,9.773745444,336.1623521,14.35,'11111222,11111222,11111222' 
TABS,ioos:station:wmo:42044:1,2002-12-05T04:39:00Z,26.1914,-97.0507,0.0,10.1930025,326.808689,14.34,'11111222,11111222,11111222' 
TABS,ioos:station:wmo:42044:1,2002-12-05T05:09:00Z,26.1914,-97.0507,0.0,10.07825382,331.298653,15.37,'11111222,11111222,11111222' 
TABS,ioos:station:wmo:42044:1,2002-12-05T05:39:00Z,26.1914,-97.0507,0.0,11.05474106,325.1309852,16.35,'11111222,11111222,11111222' 